Time,TemperatureF,DewpointF,PressureIn,WindDirection,WindDirectionDegrees,WindSpeedMPH,WindSpeedGustMPH,Humidity,HourlyPrecipIn,Conditions,Clouds,dailyrainin,SolarRadiationWatts/m^2,SoftwareType,DateUTC
2013-03-09 00:01:00,61.0,51.0,-100.00,SSE,166,5.0,13.0,70,0.00,,,-99.99,0.000000,,2013-03-09 06:01:00,
2013-03-09 00:32:00,60.0,52.0,-100.00,South,170,3.0,8.0,74,0.00,,,0.00,0.000000,,2013-03-09 06:32:00,
2013-03-09 00:42:00,60.0,52.0,-100.00,South,170,3.0,8.0,74,0.00,,,0.00,0.000000,,2013-03-09 06:42:00,
2013-03-09 00:52:00,60.0,52.0,-100.00,South,170,3.0,8.0,74,0.00,,,0.00,0.000000,,2013-03-09 06:52:00,
2013-03-09 01:01:00,60.0,52.0,-100.00,South,170,3.0,8.0,74,0.00,,,0.00,0.000000,,2013-03-09 07:01:00,
2013-03-09 01:32:00,60.0,52.0,-100.00,SSE,150,4.0,8.0,76,0.00,,,0.00,0.000000,,2013-03-09 07:32:00,
2013-03-09 01:42:00,60.0,52.0,-100.00,SSE,150,4.0,8.0,76,0.00,,,0.00,0.000000,,2013-03-09 07:42:00,
2013-03-09 01:52:00,60.0,52.0,-100.00,SSE,150,4.0,8.0,76,0.00,,,0.00,0.000000,,2013-03-09 07:52:00,
2013-03-09 02:01:00,60.0,52.0,-100.00,SSE,150,4.0,8.0,76,0.00,,,0.00,0.000000,,2013-03-09 08:01:00,
2013-03-09 02:32:00,58.0,52.0,-100.00,SSE,155,4.0,8.0,79,0.00,,,0.00,0.000000,,2013-03-09 08:32:00,
2013-03-09 02:42:00,58.0,52.0,-100.00,SSE,155,4.0,8.0,79,0.00,,,0.00,0.000000,,2013-03-09 08:42:00,
2013-03-09 02:52:00,58.0,52.0,-100.00,SSE,155,4.0,8.0,79,0.00,,,0.00,0.000000,,2013-03-09 08:52:00,
2013-03-09 03:01:00,58.0,52.0,-100.00,SSE,155,4.0,8.0,79,0.00,,,0.00,0.000000,,2013-03-09 09:01:00,
2013-03-09 03:32:00,58.0,53.0,-100.00,SSE,151,2.0,6.0,82,0.00,,,0.00,0.000000,,2013-03-09 09:32:00,
2013-03-09 03:42:00,58.0,53.0,-100.00,SSE,151,2.0,6.0,82,0.00,,,0.00,0.000000,,2013-03-09 09:42:00,
2013-03-09 03:52:00,58.0,53.0,-100.00,SSE,151,2.0,6.0,82,0.00,,,0.00,0.000000,,2013-03-09 09:52:00,
2013-03-09 04:01:00,58.0,53.0,-100.00,SSE,151,2.0,6.0,82,0.00,,,0.00,0.000000,,2013-03-09 10:01:00,
2013-03-09 04:32:00,58.0,53.0,-100.00,SSE,152,3.0,7.0,84,0.00,,,0.00,0.000000,,2013-03-09 10:32:00,
2013-03-09 04:42:00,58.0,53.0,-100.00,SSE,152,3.0,7.0,84,0.00,,,0.00,0.000000,,2013-03-09 10:42:00,
2013-03-09 04:52:00,58.0,53.0,-100.00,SSE,152,3.0,7.0,84,0.00,,,0.00,0.000000,,2013-03-09 10:52:00,
2013-03-09 05:01:00,58.0,53.0,-100.00,SSE,152,3.0,7.0,84,0.00,,,0.00,0.000000,,2013-03-09 11:01:00,
2013-03-09 05:22:00,58.0,53.0,-100.00,SSE,153,4.0,8.0,84,0.00,,,0.00,0.000000,,2013-03-09 11:22:00,
2013-03-09 05:32:00,58.0,53.0,-100.00,SSE,153,4.0,8.0,84,0.00,,,0.00,0.000000,,2013-03-09 11:32:00,
2013-03-09 05:42:00,58.0,53.0,-100.00,SSE,153,4.0,8.0,84,0.00,,,0.00,0.000000,,2013-03-09 11:42:00,
2013-03-09 05:52:00,58.0,53.0,-100.00,SSE,153,4.0,8.0,84,0.00,,,0.00,0.000000,,2013-03-09 11:52:00,
2013-03-09 06:01:00,58.0,53.0,-100.00,SSE,153,4.0,8.0,84,0.00,,,0.00,0.000000,,2013-03-09 12:01:00,
2013-03-09 06:32:00,58.0,54.0,-100.00,SSE,149,5.0,10.0,85,0.00,,,0.00,0.000000,,2013-03-09 12:32:00,
2013-03-09 06:42:00,58.0,54.0,-100.00,SSE,149,5.0,10.0,85,0.00,,,0.00,0.000000,,2013-03-09 12:42:00,
2013-03-09 06:52:00,58.0,54.0,-100.00,SSE,149,5.0,10.0,85,0.00,,,0.00,0.000000,,2013-03-09 12:52:00,
2013-03-09 07:02:00,58.0,54.0,-100.00,SSE,149,5.0,10.0,85,0.00,,,0.00,0.000000,,2013-03-09 13:02:00,
2013-03-09 07:32:00,58.0,54.0,-100.00,SE,138,5.0,11.0,86,0.00,,,0.00,0.000000,,2013-03-09 13:32:00,
2013-03-09 07:42:00,58.0,54.0,-100.00,SE,138,5.0,11.0,86,0.00,,,0.00,0.000000,,2013-03-09 13:42:00,
2013-03-09 07:52:00,58.0,54.0,-100.00,SE,138,5.0,11.0,86,0.00,,,0.00,0.000000,,2013-03-09 13:52:00,
2013-03-09 08:01:00,58.0,54.0,-100.00,SE,138,5.0,11.0,86,0.00,,,0.00,0.000000,,2013-03-09 14:01:00,
2013-03-09 08:32:00,59.0,56.0,-100.00,SE,138,6.0,11.0,89,0.00,,,-99.99,22.000000,,2013-03-09 14:32:00,
2013-03-09 08:42:00,59.0,56.0,-100.00,SE,138,6.0,11.0,89,0.00,,,-99.99,22.000000,,2013-03-09 14:42:00,
2013-03-09 08:52:00,59.0,56.0,-100.00,SE,138,6.0,11.0,89,0.00,,,-99.99,22.000000,,2013-03-09 14:52:00,
2013-03-09 09:01:00,59.0,56.0,-100.00,SE,138,6.0,11.0,89,0.00,,,-99.99,22.000000,,2013-03-09 15:01:00,
2013-03-09 09:32:00,62.0,58.0,-100.00,SSE,147,5.0,13.0,88,0.00,,,0.00,76.000000,,2013-03-09 15:32:00,
2013-03-09 09:42:00,62.0,58.0,-100.00,SSE,147,5.0,13.0,88,0.00,,,0.00,76.000000,,2013-03-09 15:42:00,
2013-03-09 09:52:00,62.0,58.0,-100.00,SSE,147,5.0,13.0,88,0.00,,,0.00,76.000000,,2013-03-09 15:52:00,
2013-03-09 10:01:00,62.0,58.0,-100.00,SSE,147,5.0,13.0,88,0.00,,,0.00,76.000000,,2013-03-09 16:01:00,
2013-03-09 10:32:00,64.0,59.0,-100.00,SSE,158,6.0,13.0,84,0.00,,,0.00,153.000000,,2013-03-09 16:32:00,
2013-03-09 10:42:00,64.0,59.0,-100.00,SSE,158,6.0,13.0,84,0.00,,,0.00,153.000000,,2013-03-09 16:42:00,
2013-03-09 10:52:00,64.0,59.0,-100.00,SSE,158,6.0,13.0,84,0.00,,,0.00,153.000000,,2013-03-09 16:52:00,
2013-03-09 11:01:00,64.0,59.0,-100.00,SSE,158,6.0,13.0,84,0.00,,,0.00,153.000000,,2013-03-09 17:01:00,
2013-03-09 11:32:00,67.0,59.0,-100.00,SSE,154,8.0,19.0,76,0.00,,,0.00,295.000000,,2013-03-09 17:32:00,
2013-03-09 11:42:00,67.0,59.0,-100.00,SSE,154,8.0,19.0,76,0.00,,,0.00,295.000000,,2013-03-09 17:42:00,
2013-03-09 11:52:00,67.0,59.0,-100.00,SSE,154,8.0,19.0,76,0.00,,,0.00,295.000000,,2013-03-09 17:52:00,
2013-03-09 12:01:00,67.0,59.0,-100.00,SSE,154,8.0,19.0,76,0.00,,,0.00,295.000000,,2013-03-09 18:01:00,
2013-03-09 12:32:00,70.0,61.0,-100.00,SSE,164,8.0,20.0,72,0.00,,,0.00,312.000000,,2013-03-09 18:32:00,
2013-03-09 12:42:00,70.0,61.0,-100.00,SSE,164,8.0,20.0,72,0.00,,,0.00,312.000000,,2013-03-09 18:42:00,
2013-03-09 12:52:00,70.0,61.0,-100.00,SSE,164,8.0,20.0,72,0.00,,,0.00,312.000000,,2013-03-09 18:52:00,
2013-03-09 13:01:00,70.0,61.0,-100.00,SSE,164,8.0,20.0,72,0.00,,,0.00,312.000000,,2013-03-09 19:01:00,
2013-03-09 13:32:00,71.0,60.0,-100.00,South,175,10.0,21.0,68,0.00,,,-99.99,276.000000,,2013-03-09 19:32:00,
2013-03-09 13:42:00,71.0,60.0,-100.00,South,175,10.0,21.0,68,0.00,,,-99.99,276.000000,,2013-03-09 19:42:00,
2013-03-09 13:52:00,71.0,60.0,-100.00,South,175,10.0,21.0,68,0.00,,,-99.99,276.000000,,2013-03-09 19:52:00,
2013-03-09 14:01:00,71.0,60.0,-100.00,South,175,10.0,21.0,68,0.00,,,-99.99,276.000000,,2013-03-09 20:01:00,
2013-03-09 14:32:00,72.0,60.0,-100.00,SSE,163,9.0,18.0,66,0.00,,,0.00,280.000000,,2013-03-09 20:32:00,
2013-03-09 14:42:00,72.0,60.0,-100.00,SSE,163,9.0,18.0,66,0.00,,,0.00,280.000000,,2013-03-09 20:42:00,
2013-03-09 14:52:00,72.0,60.0,-100.00,SSE,163,9.0,18.0,66,0.00,,,0.00,280.000000,,2013-03-09 20:52:00,
2013-03-09 15:02:00,72.0,60.0,-100.00,SSE,163,9.0,18.0,66,0.00,,,0.00,280.000000,,2013-03-09 21:02:00,
2013-03-09 15:32:00,73.0,60.0,-100.00,SSE,167,7.0,16.0,63,0.00,,,0.00,218.000000,,2013-03-09 21:32:00,
2013-03-09 15:42:00,73.0,60.0,-100.00,SSE,167,7.0,16.0,63,0.00,,,0.00,218.000000,,2013-03-09 21:42:00,
2013-03-09 15:52:00,73.0,60.0,-100.00,SSE,167,7.0,16.0,63,0.00,,,0.00,218.000000,,2013-03-09 21:52:00,
2013-03-09 16:01:00,73.0,60.0,-100.00,SSE,167,7.0,16.0,63,0.00,,,0.00,218.000000,,2013-03-09 22:01:00,
2013-03-09 16:32:00,72.0,58.0,-100.00,South,170,9.0,19.0,62,0.00,,,0.00,205.000000,,2013-03-09 22:32:00,
2013-03-09 16:42:00,72.0,58.0,-100.00,South,170,9.0,19.0,62,0.00,,,0.00,205.000000,,2013-03-09 22:42:00,
2013-03-09 16:52:00,72.0,58.0,-100.00,South,170,9.0,19.0,62,0.00,,,0.00,205.000000,,2013-03-09 22:52:00,
2013-03-09 17:01:00,72.0,58.0,-100.00,South,170,9.0,19.0,62,0.00,,,0.00,205.000000,,2013-03-09 23:01:00,
2013-03-09 17:22:00,71.0,58.0,-100.00,South,172,10.0,18.0,64,0.00,,,0.00,104.000000,,2013-03-09 23:22:00,
2013-03-09 17:32:00,71.0,58.0,-100.00,South,172,10.0,18.0,64,0.00,,,0.00,104.000000,,2013-03-09 23:32:00,
2013-03-09 17:42:00,71.0,58.0,-100.00,South,172,10.0,18.0,64,0.00,,,0.00,104.000000,,2013-03-09 23:42:00,
2013-03-09 17:52:00,71.0,58.0,-100.00,South,172,10.0,18.0,64,0.00,,,0.00,104.000000,,2013-03-09 23:52:00,
2013-03-09 18:01:00,71.0,58.0,-100.00,South,172,10.0,18.0,64,0.00,,,0.00,104.000000,,2013-03-10 00:01:00,
2013-03-09 18:32:00,69.0,58.0,-100.00,SSE,167,8.0,20.0,67,0.00,,,0.00,34.000000,,2013-03-10 00:32:00,
2013-03-09 18:43:00,69.0,58.0,-100.00,SSE,167,8.0,20.0,67,0.00,,,0.00,34.000000,,2013-03-10 00:43:00,
2013-03-09 18:52:00,69.0,58.0,-100.00,SSE,167,8.0,20.0,67,0.00,,,0.00,34.000000,,2013-03-10 00:52:00,
2013-03-09 19:01:00,69.0,58.0,-100.00,SSE,167,8.0,20.0,67,0.00,,,0.00,34.000000,,2013-03-10 01:01:00,
2013-03-09 19:22:00,68.0,58.0,-100.00,SSE,156,8.0,19.0,71,0.00,,,-99.99,2.000000,,2013-03-10 01:22:00,
2013-03-09 19:32:00,68.0,58.0,-100.00,SSE,156,8.0,19.0,71,0.00,,,-99.99,2.000000,,2013-03-10 01:32:00,
2013-03-09 19:42:00,68.0,58.0,-100.00,SSE,156,8.0,19.0,71,0.00,,,-99.99,2.000000,,2013-03-10 01:42:00,
2013-03-09 19:52:00,68.0,58.0,-100.00,SSE,156,8.0,19.0,71,0.00,,,-99.99,2.000000,,2013-03-10 01:52:00,
2013-03-09 20:01:00,68.0,58.0,-100.00,SSE,156,8.0,19.0,71,0.00,,,-99.99,2.000000,,2013-03-10 02:01:00,
2013-03-09 20:32:00,67.0,58.0,-100.00,SSE,160,7.0,16.0,72,0.00,,,-99.99,0.000000,,2013-03-10 02:32:00,
2013-03-09 20:42:00,67.0,58.0,-100.00,SSE,160,7.0,16.0,72,0.00,,,-99.99,0.000000,,2013-03-10 02:42:00,
2013-03-09 20:52:00,67.0,58.0,-100.00,SSE,160,7.0,16.0,72,0.00,,,-99.99,0.000000,,2013-03-10 02:52:00,
2013-03-09 21:01:00,67.0,58.0,-100.00,SSE,160,7.0,16.0,72,0.00,,,-99.99,0.000000,,2013-03-10 03:01:00,
2013-03-09 21:22:00,67.0,59.0,-100.00,SSE,165,7.0,19.0,76,0.00,,,0.00,0.000000,,2013-03-10 03:22:00,
2013-03-09 21:32:00,67.0,59.0,-100.00,SSE,165,7.0,19.0,76,0.00,,,0.00,0.000000,,2013-03-10 03:32:00,
2013-03-09 21:42:00,67.0,59.0,-100.00,SSE,165,7.0,19.0,76,0.00,,,0.00,0.000000,,2013-03-10 03:42:00,
2013-03-09 21:52:00,67.0,59.0,-100.00,SSE,165,7.0,19.0,76,0.00,,,0.00,0.000000,,2013-03-10 03:52:00,
2013-03-09 22:01:00,67.0,59.0,-100.00,SSE,165,7.0,19.0,76,0.00,,,0.00,0.000000,,2013-03-10 04:01:00,
2013-03-09 22:32:00,65.0,61.0,-100.00,SSE,168,3.0,13.0,87,0.00,,,0.00,0.000000,,2013-03-10 04:32:00,
2013-03-09 22:42:00,65.0,61.0,-100.00,SSE,168,3.0,13.0,87,0.00,,,0.00,0.000000,,2013-03-10 04:42:00,
2013-03-09 22:52:00,65.0,61.0,-100.00,SSE,168,3.0,13.0,87,0.00,,,0.00,0.000000,,2013-03-10 04:52:00,
2013-03-09 23:01:00,65.0,61.0,-100.00,SSE,168,3.0,13.0,87,0.00,,,0.00,0.000000,,2013-03-10 05:01:00,
2013-03-09 23:22:00,65.0,62.0,-100.00,SE,137,6.0,11.0,89,0.01,,,0.01,0.000000,,2013-03-10 05:22:00,
2013-03-09 23:32:00,65.0,62.0,-100.00,SE,137,6.0,11.0,89,0.01,,,0.01,0.000000,,2013-03-10 05:32:00,
2013-03-09 23:42:00,65.0,62.0,-100.00,SE,137,6.0,11.0,89,0.01,,,0.01,0.000000,,2013-03-10 05:42:00,
2013-03-09 23:52:00,65.0,62.0,-100.00,SE,137,6.0,11.0,89,0.01,,,0.01,0.000000,,2013-03-10 05:52:00,